Location: Roland
(31.1349°N, 85.4372°W)
Time: 18:35:03
(UTC+00:00)

SR - Pass Details

Date: 17 April 2021
Orbit: 573 x 882 km, 66.7° (Epoch: 12 May)

Event Time Altitude Azimuth Distance (km) Brightness Sun altitude
Rises 22:40:32 0° 339° (NNW) 3,439 ? 18.5°
Reaches altitude 10° 22:43:09 10° 344° (NNW) 2,470 ? 17.9°
Maximum altitude 22:48:45 56° 62° (ENE) 951 ? 16.7°
Drops below altitude 10° 22:53:55 10° 140° (SE) 2,279 ? 15.6°
Sets 22:56:15 0° 145° (SE) 3,151 ? 15.1°
